Flag for Finland Weather past 2 weeks in Helsinki, Finland

Now
57 °F

Passing clouds.


Feels Like: 55 °F
Forecast: 47 / 52 °F
Wind: 12 mph from South

Location: Helsinki Malmi Airport

Current Time: May 22, 2015 at 1:47:38 PM

Latest Report: May 22, 2015 at 1:20 PM


Visibility: N/A

Pressure: 30.09 "Hg

Humidity: 63%

Dew point: 45 °F

Location of HelsinkiLocation

Historic Weather in Helsinki — Graph

°F

Helsinki temperature yesterday

Maximum temperature yesterday: 57 °F (at 6:50 PM)
Minimum temperature yesterday: 45 °F (at 10:20 PM)
Average temperature yesterday: 50 °F

Past Weeks' High & Low Weather Summary

 TemperatureHumidityPressure
High59 °F (May 14, 3:20 PM)100% (May 7, 5:20 PM)30.18 "Hg (May 7, 5:20 PM)
Low30 °F (May 16, 3:20 AM)36% (May 19, 6:20 PM)29.30 "Hg (May 13, 7:50 PM)
Average48 °F74%29.80 "Hg
* Reported May 7 12:20 PM — May 22 12:20 PM, Helsinki, Weather by CustomWeather, © 2015

Note: Actual official high and low records may vary slightly from our data, if they occured in-between our weather recording intervals... More about our weather records

Advertising

Helsinki weather history for previous 24 hours

 ConditionsComfort  
Time TempWeatherWind HumidityBarometerVisibility
12:20 PM
Fri, May 22
55 °FPassing clouds.12 mph67%30.12 "HgN/A
11:50 AM57 °FPassing clouds.12 mph67%30.12 "HgN/A
11:20 AM57 °FPassing clouds.10 mph67%30.12 "HgN/A
10:50 AM55 °FPassing clouds.10 mph72%30.12 "HgN/A
10:20 AM55 °FPassing clouds.9 mph67%30.12 "HgN/A
9:50 AM55 °FPassing clouds.8 mph67%30.12 "HgN/A
9:20 AM54 °FPassing clouds.7 mph77%30.12 "HgN/A
8:50 AM50 °FPassing clouds.7 mph82%30.12 "HgN/A
8:20 AM50 °FPassing clouds.7 mph88%30.12 "HgN/A
7:50 AM48 °FPassing clouds.5 mph87%30.12 "HgN/A
7:20 AM46 °FPassing clouds.3 mph93%30.09 "HgN/A
6:50 AM46 °FSunny.1 mph87%30.09 "Hg10 mi
6:20 AM41 °FSunny.No wind100%30.09 "Hg5 mi
5:50 AM39 °FLight fog.No wind100%30.09 "HgN/A
5:20 AM37 °FFog.No wind93%30.09 "Hg3 mi
4:50 AM39 °FFog.No wind100%30.09 "Hg1 mi
4:20 AM41 °FClear.1 mph93%30.09 "Hg4 mi
3:50 AM43 °FClear.3 mph100%30.09 "Hg10 mi
3:20 AM43 °FClear.1 mph93%30.09 "Hg3 mi
2:50 AM43 °FClear.1 mph100%30.09 "Hg10 mi
2:20 AM43 °FClear.1 mph93%30.09 "Hg10 mi
1:20 AM45 °FClear.2 mph93%30.09 "Hg4 mi
11:50 PM
Thu, May 21
45 °FClear.2 mph93%30.07 "Hg5 mi
11:20 PM45 °FPassing clouds.2 mph100%30.07 "Hg5 mi
10:50 PM45 °FFog.3 mph100%30.04 "Hg2 mi
10:20 PM45 °FPassing clouds.3 mph100%30.04 "Hg5 mi
9:50 PM46 °FPassing clouds.5 mph93%30.04 "HgN/A
9:20 PM50 °FPassing clouds.6 mph82%30.04 "HgN/A
8:50 PM54 °FPassing clouds.6 mph67%30.04 "HgN/A
8:20 PM55 °FPassing clouds.7 mph63%30.01 "HgN/A
7:50 PM55 °FPassing clouds.9 mph63%30.01 "HgN/A
7:20 PM55 °FPassing clouds.10 mph59%30.01 "HgN/A
6:50 PM57 °FPassing clouds.10 mph59%30.01 "HgN/A
6:20 PM55 °FPassing clouds.12 mph67%30.01 "HgN/A
5:50 PM55 °FScattered clouds.9 mph67%30.01 "HgN/A
5:20 PM55 °FPartly sunny.8 mph67%30.01 "HgN/A
4:50 PM55 °FPartly sunny.9 mph72%30.01 "HgN/A
4:20 PM55 °FBroken clouds.12 mph72%30.01 "HgN/A
3:50 PM54 °FPartly sunny.10 mph77%30.01 "HgN/A
3:20 PM55 °FPartly sunny.5 mph67%30.01 "HgN/A
2:50 PM54 °FScattered clouds.5 mph67%30.01 "HgN/A
2:20 PM52 °FBroken clouds.6 mph77%30.01 "HgN/A
1:50 PM52 °FPartly sunny.5 mph77%30.01 "HgN/A
1:20 PM50 °FSprinkles. Broken clouds.5 mph82%30.01 "HgN/A
Weather by CustomWeather, © 2015

See weather overviewHow to use our weather pages